Regional Weather Roundup
Issued by NWS Goodland, KS

Home | Current Version | Previous Version | Text Only | Print | Product List | Glossary On
Versions: 1 2 3 4 5 6 7 8 9 10 11 12 13 14 15 16 17 18 19 20 21 22 23 24 25 26 27 28 29 30 31 32 33 34 35 36 37 38 39 40 41 42 43 44 45 46 47 48 49 50
000
ASUS43 KGLD 241259
RWRGLD

GOODLAND FORECAST AREA HOURLY WEATHER ROUNDUP
NATIONAL WEATHER SERVICE GOODLAND KS
700 AM MDT THU APR 24 2014

...OFFICIAL OBSERVATIONS...

CITY           SKY/WX    TMP DP  RH WIND       PRES   REMARKS
GOODLAND KS    PTSUNNY   46  35  65 NW17      29.94R
HILL CITY KS   CLOUDY    53  41  63 N14       29.80R
IMPERIAL NEB   PTSUNNY   45  32  60 NW16G24   29.91R
MCCOOK NEB     CLOUDY    50  36  58 NW16      29.86R
AKRON CO       CLEAR     37  19  48 NW13      29.98R
BURLINGTON CO  MOSUNNY   41  19  41 NW14      29.96R
LIMON CO       CLEAR     32  23  69 W7        30.01R
$$

...UNOFFICIAL OBSERVATIONS...

CITY           SKY/WX    TMP DP  RH WIND       PRES   REMARKS
COLBY KS       SUNNY     48  37  66 NW15      29.90R
LENORA KS        N/A     50  32  50 NW14        N/A
LEOTI KS         N/A     51  32  48 NW13        N/A
NORTON KS      CLOUDY    46  39  76 NW13      29.80R
SHARON SPRINGS   N/A     49  36  60 N17G26      N/A
WAKEENEY KS      N/A     51  39  62 MISG        N/A
TRENTON NEB      N/A     47  32  56 NW14        N/A
KIT CARSON CO    N/A     41  19  41 MISG        N/A
$$



USA.gov is the U.S. government's official web portal to all federal, state and local government web resources and services.